Year,Month,Day,Hour,Minute,Value (Times are PST for temperature in C)
2013,05,01,00,00,6.40
2013,05,01,00,01,6.40
2013,05,01,00,02,6.40
2013,05,01,00,03,6.40
2013,05,01,00,04,6.50
2013,05,01,00,05,6.50
2013,05,01,00,06,6.50
2013,05,01,00,07,6.50
2013,05,01,00,08,6.50
2013,05,01,00,09,6.50
2013,05,01,00,10,6.50
2013,05,01,00,11,6.50
2013,05,01,00,12,6.50
2013,05,01,00,13,6.40
2013,05,01,00,14,6.40
2013,05,01,00,15,6.40
2013,05,01,00,16,6.40
2013,05,01,00,17,6.30
2013,05,01,00,18,6.30
2013,05,01,00,19,6.30
2013,05,01,00,20,6.30
2013,05,01,00,21,6.30
2013,05,01,00,22,6.30
2013,05,01,00,23,6.20
2013,05,01,00,24,6.20
2013,05,01,00,25,6.20
2013,05,01,00,26,6.20
2013,05,01,00,27,6.20
2013,05,01,00,28,6.20
2013,05,01,00,29,6.10
2013,05,01,00,30,6.10
2013,05,01,00,31,6.00
2013,05,01,00,32,6.00
2013,05,01,00,33,6.00
2013,05,01,00,34,5.90
2013,05,01,00,35,5.90
2013,05,01,00,36,5.90
2013,05,01,00,37,5.90
2013,05,01,00,38,5.90
2013,05,01,00,39,5.90
2013,05,01,00,40,6.00
2013,05,01,00,41,6.00
2013,05,01,00,42,6.00
2013,05,01,00,43,6.00
2013,05,01,00,44,6.00
2013,05,01,00,45,6.00
2013,05,01,00,46,6.00
2013,05,01,00,47,6.10
2013,05,01,00,48,6.10
2013,05,01,00,49,6.10
2013,05,01,00,50,6.10
2013,05,01,00,51,6.10
2013,05,01,00,52,6.10
2013,05,01,00,53,6.10
2013,05,01,00,54,6.00
2013,05,01,00,55,6.00
2013,05,01,00,56,6.00
2013,05,01,00,57,6.00
2013,05,01,00,58,6.00
2013,05,01,00,59,6.00
2013,05,01,01,00,6.00
2013,05,01,01,01,5.90
2013,05,01,01,02,5.90
2013,05,01,01,03,5.90
2013,05,01,01,04,5.90
2013,05,01,01,05,5.90
2013,05,01,01,06,5.90
2013,05,01,01,07,5.90
2013,05,01,01,08,5.90
2013,05,01,01,09,5.90
2013,05,01,01,10,5.90
2013,05,01,01,11,5.90
2013,05,01,01,12,5.90
2013,05,01,01,13,5.90
2013,05,01,01,14,5.90
2013,05,01,01,15,5.90
2013,05,01,01,16,5.90
2013,05,01,01,17,5.90
2013,05,01,01,18,5.90
2013,05,01,01,19,5.90
2013,05,01,01,20,5.90
2013,05,01,01,21,5.90
2013,05,01,01,22,5.90
2013,05,01,01,23,5.90
2013,05,01,01,24,5.90
2013,05,01,01,25,5.90
2013,05,01,01,26,5.90
2013,05,01,01,27,5.90
2013,05,01,01,28,5.80
2013,05,01,01,29,5.80
2013,05,01,01,30,5.80
2013,05,01,01,31,5.80
2013,05,01,01,32,5.80
2013,05,01,01,33,5.80
2013,05,01,01,34,5.80
2013,05,01,01,35,5.80
2013,05,01,01,36,5.80
2013,05,01,01,37,5.70
2013,05,01,01,38,5.70
2013,05,01,01,39,5.70
2013,05,01,01,40,5.70
2013,05,01,01,41,5.70
2013,05,01,01,42,5.70
2013,05,01,01,43,5.70
2013,05,01,01,44,5.70
2013,05,01,01,45,5.70
2013,05,01,01,46,5.60
2013,05,01,01,47,5.60
2013,05,01,01,48,5.60
2013,05,01,01,49,5.60
2013,05,01,01,50,5.60
2013,05,01,01,51,5.50
2013,05,01,01,52,5.50
2013,05,01,01,53,5.50
2013,05,01,01,54,5.40
2013,05,01,01,55,5.40
2013,05,01,01,56,5.40
2013,05,01,01,57,5.30
2013,05,01,01,58,5.30
2013,05,01,01,59,5.30
2013,05,01,02,00,5.30
2013,05,01,02,01,5.30
2013,05,01,02,02,5.30
2013,05,01,02,03,5.30
2013,05,01,02,04,5.30
2013,05,01,02,05,5.30
2013,05,01,02,06,5.30
2013,05,01,02,07,5.30
2013,05,01,02,08,5.30
2013,05,01,02,09,5.30
2013,05,01,02,10,5.20
2013,05,01,02,11,5.20
2013,05,01,02,12,5.20
2013,05,01,02,13,5.20
2013,05,01,02,14,5.20
2013,05,01,02,15,5.20
2013,05,01,02,16,5.20
2013,05,01,02,17,5.10
2013,05,01,02,18,5.10
2013,05,01,02,19,5.00
2013,05,01,02,20,5.00
2013,05,01,02,21,4.90
2013,05,01,02,22,4.90
2013,05,01,02,23,4.90
2013,05,01,02,24,4.90
2013,05,01,02,25,4.80
2013,05,01,02,26,4.80
2013,05,01,02,27,4.80
2013,05,01,02,28,4.70
2013,05,01,02,29,4.70
2013,05,01,02,30,4.70
2013,05,01,02,31,4.70
2013,05,01,02,32,4.70
2013,05,01,02,33,4.60
2013,05,01,02,34,4.60
2013,05,01,02,35,4.60
2013,05,01,02,36,4.60
2013,05,01,02,37,4.60
2013,05,01,02,38,4.60
2013,05,01,02,39,4.50
2013,05,01,02,40,4.50
2013,05,01,02,41,4.40
2013,05,01,02,42,4.40
2013,05,01,02,43,4.40
2013,05,01,02,44,4.40
2013,05,01,02,45,4.40
2013,05,01,02,46,4.30
2013,05,01,02,47,4.30
2013,05,01,02,48,4.30
2013,05,01,02,49,4.30
2013,05,01,02,50,4.30
2013,05,01,02,51,4.30
2013,05,01,02,52,4.30
2013,05,01,02,53,4.20
2013,05,01,02,54,4.20
2013,05,01,02,55,4.20
2013,05,01,02,56,4.20
2013,05,01,02,57,4.10
2013,05,01,02,58,4.10
2013,05,01,02,59,4.10
2013,05,01,03,00,4.00
2013,05,01,03,01,4.00
2013,05,01,03,02,3.90
2013,05,01,03,03,3.90
2013,05,01,03,04,3.80
2013,05,01,03,05,3.80
2013,05,01,03,06,3.70
2013,05,01,03,07,3.70
2013,05,01,03,08,3.60
2013,05,01,03,09,3.60
2013,05,01,03,10,3.60
2013,05,01,03,11,3.50
2013,05,01,03,12,3.50
2013,05,01,03,13,3.50
2013,05,01,03,14,3.50
2013,05,01,03,15,3.50
2013,05,01,03,16,3.50
2013,05,01,03,17,3.50
2013,05,01,03,18,3.60
2013,05,01,03,19,3.60
2013,05,01,03,20,3.60
2013,05,01,03,21,3.60
2013,05,01,03,22,3.60
2013,05,01,03,23,3.60
2013,05,01,03,24,3.50
2013,05,01,03,25,3.50
2013,05,01,03,26,3.50
2013,05,01,03,27,3.40
2013,05,01,03,28,3.40
2013,05,01,03,29,3.30
2013,05,01,03,30,3.30
2013,05,01,03,31,3.30
2013,05,01,03,32,3.20
2013,05,01,03,33,3.20
2013,05,01,03,34,3.20
2013,05,01,03,35,3.10
2013,05,01,03,36,3.10
2013,05,01,03,37,3.10
2013,05,01,03,38,3.10
2013,05,01,03,39,3.00
2013,05,01,03,40,3.00
2013,05,01,03,41,3.00
2013,05,01,03,42,2.90
2013,05,01,03,43,2.90
2013,05,01,03,44,2.90
2013,05,01,03,45,2.90
2013,05,01,03,46,2.90
2013,05,01,03,47,2.80
2013,05,01,03,48,2.80
2013,05,01,03,49,2.80
2013,05,01,03,50,2.80
2013,05,01,03,51,2.80
2013,05,01,03,52,2.80
2013,05,01,03,53,2.80
2013,05,01,03,54,2.80
2013,05,01,03,55,2.80
2013,05,01,03,56,2.80
2013,05,01,03,57,2.80
2013,05,01,03,58,2.80
2013,05,01,03,59,2.80
2013,05,01,04,00,2.80
2013,05,01,04,01,2.80
2013,05,01,04,02,2.80
2013,05,01,04,03,2.80
2013,05,01,04,04,2.80
2013,05,01,04,05,2.80
2013,05,01,04,06,2.80
2013,05,01,04,07,2.80
2013,05,01,04,08,2.80
2013,05,01,04,09,2.70
2013,05,01,04,10,2.70
2013,05,01,04,11,2.70
2013,05,01,04,12,2.70
2013,05,01,04,13,2.70
2013,05,01,04,14,2.60
2013,05,01,04,15,2.60
2013,05,01,04,16,2.60
2013,05,01,04,17,2.60
2013,05,01,04,18,2.60
2013,05,01,04,19,2.60
2013,05,01,04,20,2.60
2013,05,01,04,21,2.60
2013,05,01,04,22,2.50
2013,05,01,04,23,2.50
2013,05,01,04,24,2.50
2013,05,01,04,25,2.40
2013,05,01,04,26,2.40
2013,05,01,04,27,2.40
2013,05,01,04,28,2.40
2013,05,01,04,29,2.40
2013,05,01,04,30,2.40
2013,05,01,04,31,2.50
2013,05,01,04,32,2.50
2013,05,01,04,33,2.50
2013,05,01,04,34,2.50
2013,05,01,04,35,2.50
2013,05,01,04,36,2.50
2013,05,01,04,37,2.50
2013,05,01,04,38,2.50
2013,05,01,04,39,2.50
2013,05,01,04,40,2.50
2013,05,01,04,41,2.50
2013,05,01,04,42,2.50
2013,05,01,04,43,2.60
2013,05,01,04,44,2.60
2013,05,01,04,45,2.60
2013,05,01,04,46,2.60
2013,05,01,04,47,2.70
2013,05,01,04,48,2.70
2013,05,01,04,49,2.70
2013,05,01,04,50,2.70
2013,05,01,04,51,2.70
2013,05,01,04,52,2.70
2013,05,01,04,53,2.70
2013,05,01,04,54,2.80
2013,05,01,04,55,2.80
2013,05,01,04,56,2.80
2013,05,01,04,57,2.80
2013,05,01,04,58,2.80
2013,05,01,04,59,2.80
2013,05,01,05,00,2.80
2013,05,01,05,01,2.80
2013,05,01,05,02,2.80
2013,05,01,05,03,2.80
2013,05,01,05,04,2.80
2013,05,01,05,05,2.80
2013,05,01,05,06,2.80
2013,05,01,05,07,2.80
2013,05,01,05,08,2.80
2013,05,01,05,09,2.80
2013,05,01,05,10,2.80
2013,05,01,05,11,2.80
2013,05,01,05,12,2.80
2013,05,01,05,13,2.80
2013,05,01,05,14,2.80
2013,05,01,05,15,2.80
2013,05,01,05,16,2.80
2013,05,01,05,17,2.80
2013,05,01,05,18,2.70
2013,05,01,05,19,2.70
2013,05,01,05,20,2.70
2013,05,01,05,21,2.70
2013,05,01,05,22,2.70
2013,05,01,05,23,2.70
2013,05,01,05,24,2.70
2013,05,01,05,25,2.70
2013,05,01,05,26,2.70
2013,05,01,05,27,2.70
2013,05,01,05,28,2.70
2013,05,01,05,29,2.70
2013,05,01,05,30,2.70
2013,05,01,05,31,2.70
2013,05,01,05,32,2.70
2013,05,01,05,33,2.70
2013,05,01,05,34,2.70
2013,05,01,05,35,2.70
2013,05,01,05,36,2.70
2013,05,01,05,37,2.60
2013,05,01,05,38,2.70
2013,05,01,05,39,2.70
2013,05,01,05,40,2.60
2013,05,01,05,41,2.60
2013,05,01,05,42,2.60
2013,05,01,05,43,2.60
2013,05,01,05,44,2.60
2013,05,01,05,45,2.60
2013,05,01,05,46,2.50
2013,05,01,05,47,2.50
2013,05,01,05,48,2.50
2013,05,01,05,49,2.40
2013,05,01,05,50,2.40
2013,05,01,05,51,2.40
2013,05,01,05,52,2.30
2013,05,01,05,53,2.30
2013,05,01,05,54,2.30
2013,05,01,05,55,2.30
2013,05,01,05,56,2.30
2013,05,01,05,57,2.30
2013,05,01,05,58,2.30
2013,05,01,05,59,2.30
2013,05,01,06,00,2.30
2013,05,01,06,01,2.30
2013,05,01,06,02,2.30
2013,05,01,06,03,2.30
2013,05,01,06,04,2.30
2013,05,01,06,05,2.30
2013,05,01,06,06,2.30
2013,05,01,06,07,2.30
2013,05,01,06,08,2.30
2013,05,01,06,09,2.30
2013,05,01,06,10,2.30
2013,05,01,06,11,2.30
2013,05,01,06,12,2.30
2013,05,01,06,13,2.30
2013,05,01,06,14,2.30
2013,05,01,06,15,2.30
2013,05,01,06,16,2.30
2013,05,01,06,17,2.30
2013,05,01,06,18,2.30
2013,05,01,06,19,2.30
2013,05,01,06,20,2.30
2013,05,01,06,21,2.30
2013,05,01,06,22,2.30
2013,05,01,06,23,2.30
2013,05,01,06,24,2.20
2013,05,01,06,25,2.20
2013,05,01,06,26,2.20
2013,05,01,06,27,2.20
2013,05,01,06,28,2.20
2013,05,01,06,29,2.20
2013,05,01,06,30,2.20
2013,05,01,06,31,2.20
2013,05,01,06,32,2.20
2013,05,01,06,33,2.20
2013,05,01,06,34,2.20
2013,05,01,06,35,2.10
2013,05,01,06,36,2.10
2013,05,01,06,37,2.10
2013,05,01,06,38,2.10
2013,05,01,06,39,2.20
2013,05,01,06,40,2.20
2013,05,01,06,41,2.20
2013,05,01,06,42,2.20
2013,05,01,06,43,2.20
2013,05,01,06,44,2.30
2013,05,01,06,45,2.30
2013,05,01,06,46,2.30
2013,05,01,06,47,2.30
2013,05,01,06,48,2.30
2013,05,01,06,49,2.40
2013,05,01,06,50,2.40
2013,05,01,06,51,2.40
2013,05,01,06,52,2.40
2013,05,01,06,53,2.50
2013,05,01,06,54,2.50
2013,05,01,06,55,2.50
2013,05,01,06,56,2.60
2013,05,01,06,57,2.60
2013,05,01,06,58,2.70
2013,05,01,06,59,2.70
2013,05,01,07,00,2.70
2013,05,01,07,01,2.70
2013,05,01,07,02,2.80
2013,05,01,07,03,2.80
2013,05,01,07,04,2.80
2013,05,01,07,05,2.80
2013,05,01,07,06,2.90
2013,05,01,07,07,2.90
2013,05,01,07,08,3.00
2013,05,01,07,09,3.00
2013,05,01,07,10,3.10
2013,05,01,07,11,3.10
2013,05,01,07,12,3.20
2013,05,01,07,13,3.20
2013,05,01,07,14,3.20
2013,05,01,07,15,3.30
2013,05,01,07,16,3.30
2013,05,01,07,17,3.40
2013,05,01,07,18,3.40
2013,05,01,07,19,3.50
2013,05,01,07,20,3.60
2013,05,01,07,21,3.60
2013,05,01,07,22,3.70
2013,05,01,07,23,3.80
2013,05,01,07,24,3.80
2013,05,01,07,25,3.90
2013,05,01,07,26,4.00
2013,05,01,07,27,4.00
2013,05,01,07,28,4.10
2013,05,01,07,29,4.20
2013,05,01,07,30,4.30
2013,05,01,07,31,4.30
2013,05,01,07,32,4.40
2013,05,01,07,33,4.50
2013,05,01,07,34,4.60
2013,05,01,07,35,4.60
2013,05,01,07,36,4.70
2013,05,01,07,37,4.70
2013,05,01,07,38,4.80
2013,05,01,07,39,4.80
2013,05,01,07,40,4.80
2013,05,01,07,41,4.80
2013,05,01,07,42,4.80
2013,05,01,07,43,4.90
2013,05,01,07,44,4.90
2013,05,01,07,45,5.00
2013,05,01,07,46,5.10
2013,05,01,07,47,5.10
2013,05,01,07,48,5.20
2013,05,01,07,49,5.20
2013,05,01,07,50,5.30
2013,05,01,07,51,5.40
2013,05,01,07,52,5.50
2013,05,01,07,53,5.60
2013,05,01,07,54,5.70
2013,05,01,07,55,5.80
2013,05,01,07,56,5.90
2013,05,01,07,57,6.00
2013,05,01,07,58,6.10
2013,05,01,07,59,6.20
2013,05,01,08,00,6.30
2013,05,01,08,01,6.40
2013,05,01,08,02,6.50
2013,05,01,08,03,6.60
2013,05,01,08,04,6.70
2013,05,01,08,05,6.70
2013,05,01,08,06,6.80
2013,05,01,08,07,6.90
2013,05,01,08,08,7.00
2013,05,01,08,09,7.00
2013,05,01,08,10,7.10
2013,05,01,08,11,7.20
2013,05,01,08,12,7.30
2013,05,01,08,13,7.40
2013,05,01,08,14,7.50
2013,05,01,08,15,7.60
2013,05,01,08,16,7.70
2013,05,01,08,17,7.80
2013,05,01,08,18,7.80
2013,05,01,08,19,7.90
2013,05,01,08,20,7.90
2013,05,01,08,21,8.00
2013,05,01,08,22,8.00
2013,05,01,08,23,8.10
2013,05,01,08,24,8.20
2013,05,01,08,25,8.20
2013,05,01,08,26,8.30
2013,05,01,08,27,8.40
2013,05,01,08,28,8.50
2013,05,01,08,29,8.50
2013,05,01,08,30,8.60
2013,05,01,08,31,8.70
2013,05,01,08,32,8.70
2013,05,01,08,33,8.70
2013,05,01,08,34,8.80
2013,05,01,08,35,8.80
2013,05,01,08,36,8.80
2013,05,01,08,37,8.90
2013,05,01,08,38,8.90
2013,05,01,08,39,9.00
2013,05,01,08,40,9.00
2013,05,01,08,41,9.10
2013,05,01,08,42,9.10
2013,05,01,08,43,9.10
2013,05,01,08,44,9.10
2013,05,01,08,45,9.10
2013,05,01,08,46,9.10
2013,05,01,08,47,9.20
2013,05,01,08,48,9.20
2013,05,01,08,49,9.20
2013,05,01,08,50,9.20
2013,05,01,08,51,9.20
2013,05,01,08,52,9.30
2013,05,01,08,53,9.30
2013,05,01,08,54,9.30
2013,05,01,08,55,9.30
2013,05,01,08,56,9.30
2013,05,01,08,57,9.30
2013,05,01,08,58,9.30
2013,05,01,08,59,9.30
2013,05,01,09,00,9.30
2013,05,01,09,01,9.30
2013,05,01,09,02,9.40
2013,05,01,09,03,9.40
2013,05,01,09,04,9.50
2013,05,01,09,05,9.50
2013,05,01,09,06,9.50
2013,05,01,09,07,9.60
2013,05,01,09,08,9.60
2013,05,01,09,09,9.60
2013,05,01,09,10,9.70
2013,05,01,09,11,9.70
2013,05,01,09,12,9.70
2013,05,01,09,13,9.80
2013,05,01,09,14,9.80
2013,05,01,09,15,9.80
2013,05,01,09,16,9.80
2013,05,01,09,17,9.80
2013,05,01,09,18,9.90
2013,05,01,09,19,9.90
2013,05,01,09,20,9.90
2013,05,01,09,21,9.90
2013,05,01,09,22,9.90
2013,05,01,09,23,9.90
2013,05,01,09,24,9.90
2013,05,01,09,25,9.90
2013,05,01,09,26,9.90
2013,05,01,09,27,9.80
2013,05,01,09,28,9.80
2013,05,01,09,29,9.80
2013,05,01,09,30,9.70
2013,05,01,09,31,9.70
2013,05,01,09,32,9.70
2013,05,01,09,33,9.60
2013,05,01,09,34,9.60
2013,05,01,09,35,9.60
2013,05,01,09,36,9.60
2013,05,01,09,37,9.60
2013,05,01,09,38,9.60
2013,05,01,09,39,9.60
2013,05,01,09,40,9.60
2013,05,01,09,41,9.60
2013,05,01,09,42,9.70
2013,05,01,09,43,9.70
2013,05,01,09,44,9.80
2013,05,01,09,45,9.80
2013,05,01,09,46,9.80
2013,05,01,09,47,9.90
2013,05,01,09,48,9.90
2013,05,01,09,49,9.90
2013,05,01,09,50,9.90
2013,05,01,09,51,9.90
2013,05,01,09,52,9.80
2013,05,01,09,53,9.70
2013,05,01,09,54,9.70
2013,05,01,09,55,9.80
2013,05,01,09,56,9.80
2013,05,01,09,57,9.90
2013,05,01,09,58,9.90
2013,05,01,09,59,10.00
2013,05,01,10,00,10.00
2013,05,01,10,01,10.10
2013,05,01,10,02,10.10
2013,05,01,10,03,10.10
2013,05,01,10,04,10.10
2013,05,01,10,05,10.00
2013,05,01,10,06,9.80
2013,05,01,10,07,9.80
2013,05,01,10,08,9.70
2013,05,01,10,09,9.60
2013,05,01,10,10,9.60
2013,05,01,10,11,9.50
2013,05,01,10,12,9.40
2013,05,01,10,13,9.40
2013,05,01,10,14,9.30
2013,05,01,10,15,9.30
2013,05,01,10,16,9.20
2013,05,01,10,17,9.20
2013,05,01,10,18,9.10
2013,05,01,10,19,9.10
2013,05,01,10,20,9.10
2013,05,01,10,21,9.10
2013,05,01,10,22,9.10
2013,05,01,10,23,9.10
2013,05,01,10,24,9.10
2013,05,01,10,25,9.10
2013,05,01,10,26,9.20
2013,05,01,10,27,9.20
2013,05,01,10,28,9.30
2013,05,01,10,29,9.40
2013,05,01,10,30,9.40
2013,05,01,10,31,9.40
2013,05,01,10,32,9.20
2013,05,01,10,33,9.10
2013,05,01,10,34,9.10
2013,05,01,10,35,9.10
2013,05,01,10,36,9.10
2013,05,01,10,37,9.00
2013,05,01,10,38,9.00
2013,05,01,10,39,9.00
2013,05,01,10,40,8.90
2013,05,01,10,41,8.90
2013,05,01,10,42,8.90
2013,05,01,10,43,8.90
2013,05,01,10,44,8.80
2013,05,01,10,45,8.80
2013,05,01,10,46,8.90
2013,05,01,10,47,8.90
2013,05,01,10,48,8.90
2013,05,01,10,49,8.90
2013,05,01,10,50,9.00
2013,05,01,10,51,9.00
2013,05,01,10,52,9.10
2013,05,01,10,53,9.20
2013,05,01,10,54,9.20
2013,05,01,10,55,9.20
2013,05,01,10,56,9.20
2013,05,01,10,57,9.10
2013,05,01,10,58,9.10
2013,05,01,10,59,9.10
2013,05,01,11,00,9.20
2013,05,01,11,01,9.30
2013,05,01,11,02,9.30
2013,05,01,11,03,9.30
2013,05,01,11,04,9.40
2013,05,01,11,05,9.40
2013,05,01,11,06,9.40
2013,05,01,11,07,9.50
2013,05,01,11,08,9.60
2013,05,01,11,09,9.60
2013,05,01,11,10,9.70
2013,05,01,11,11,9.70
2013,05,01,11,12,9.70
2013,05,01,11,13,9.80
2013,05,01,11,14,9.80
2013,05,01,11,15,9.90
2013,05,01,11,16,9.90
2013,05,01,11,17,9.90
2013,05,01,11,18,9.90
2013,05,01,11,19,9.90
2013,05,01,11,20,9.90
2013,05,01,11,21,10.00
2013,05,01,11,22,10.00
2013,05,01,11,23,10.10
2013,05,01,11,24,10.10
2013,05,01,11,25,10.00
2013,05,01,11,26,10.00
2013,05,01,11,27,9.90
2013,05,01,11,28,9.80
2013,05,01,11,29,9.90
2013,05,01,11,30,9.80
2013,05,01,11,31,9.80
2013,05,01,11,32,9.80
2013,05,01,11,33,9.90
2013,05,01,11,34,9.90
2013,05,01,11,35,9.90
2013,05,01,11,36,9.90
2013,05,01,11,37,9.90
2013,05,01,11,38,9.90
2013,05,01,11,39,10.00
2013,05,01,11,40,10.10
2013,05,01,11,41,10.10
2013,05,01,11,42,10.00
2013,05,01,11,43,10.00
2013,05,01,11,44,9.90
2013,05,01,11,45,9.80
2013,05,01,11,46,9.80
2013,05,01,11,47,9.70
2013,05,01,11,48,9.80
2013,05,01,11,49,9.80
2013,05,01,11,50,9.80
2013,05,01,11,51,9.80
2013,05,01,11,52,9.80
2013,05,01,11,53,9.80
2013,05,01,11,54,9.80
2013,05,01,11,55,9.80
2013,05,01,11,56,9.80
2013,05,01,11,57,9.80
2013,05,01,11,58,9.80
2013,05,01,11,59,9.70
2013,05,01,12,00,9.80
2013,05,01,12,01,9.80
2013,05,01,12,02,9.90
2013,05,01,12,03,10.00
2013,05,01,12,04,10.00
2013,05,01,12,05,10.10
2013,05,01,12,06,10.30
2013,05,01,12,07,10.40
2013,05,01,12,08,10.60
2013,05,01,12,09,10.70
2013,05,01,12,10,10.80
2013,05,01,12,11,10.90
2013,05,01,12,12,11.00
2013,05,01,12,13,11.00
2013,05,01,12,14,11.00
2013,05,01,12,15,11.00
2013,05,01,12,16,11.00
2013,05,01,12,17,11.00
2013,05,01,12,18,10.90
2013,05,01,12,19,10.90
2013,05,01,12,20,10.80
2013,05,01,12,21,10.80
2013,05,01,12,22,10.70
2013,05,01,12,23,10.70
2013,05,01,12,24,10.70
2013,05,01,12,25,10.60
2013,05,01,12,26,10.60
2013,05,01,12,27,10.60
2013,05,01,12,28,10.60
2013,05,01,12,29,10.60
2013,05,01,12,30,10.60
2013,05,01,12,31,10.70
2013,05,01,12,32,10.80
2013,05,01,12,33,10.90
2013,05,01,12,34,11.00
2013,05,01,12,35,11.00
2013,05,01,12,36,11.00
2013,05,01,12,37,11.10
2013,05,01,12,38,11.10
2013,05,01,12,39,11.10
2013,05,01,12,40,11.10
2013,05,01,12,41,11.20
2013,05,01,12,42,11.20
2013,05,01,12,43,11.20
2013,05,01,12,44,11.20
2013,05,01,12,45,11.30
2013,05,01,12,46,11.30
2013,05,01,12,47,11.40
2013,05,01,12,48,11.50
2013,05,01,12,49,11.60
2013,05,01,12,50,11.60
2013,05,01,12,51,11.60
2013,05,01,12,52,11.60
2013,05,01,12,53,11.60
2013,05,01,12,54,11.60
2013,05,01,12,55,11.60
2013,05,01,12,56,11.60
2013,05,01,12,57,11.50
2013,05,01,12,58,11.50
2013,05,01,12,59,11.50
2013,05,01,13,00,11.60
2013,05,01,13,01,11.60
2013,05,01,13,02,11.60
2013,05,01,13,03,11.70
2013,05,01,13,04,11.80
2013,05,01,13,05,11.80
2013,05,01,13,06,11.80
2013,05,01,13,07,11.90
2013,05,01,13,08,11.80
2013,05,01,13,09,11.80
2013,05,01,13,10,11.70
2013,05,01,13,11,11.70
2013,05,01,13,12,11.60
2013,05,01,13,13,11.60
2013,05,01,13,14,11.50
2013,05,01,13,15,11.40
2013,05,01,13,16,11.50
2013,05,01,13,17,11.50
2013,05,01,13,18,11.60
2013,05,01,13,19,11.60
2013,05,01,13,20,11.70
2013,05,01,13,21,11.70
2013,05,01,13,22,11.70
2013,05,01,13,23,11.80
2013,05,01,13,24,11.80
2013,05,01,13,25,11.90
2013,05,01,13,26,11.90
2013,05,01,13,27,12.00
2013,05,01,13,28,12.10
2013,05,01,13,29,12.20
2013,05,01,13,30,12.30
2013,05,01,13,31,12.30
2013,05,01,13,32,12.30
2013,05,01,13,33,12.30
2013,05,01,13,34,12.30
2013,05,01,13,35,12.30
2013,05,01,13,36,12.30
2013,05,01,13,37,12.30
2013,05,01,13,38,12.30
2013,05,01,13,39,12.40
2013,05,01,13,40,12.40
2013,05,01,13,41,12.40
2013,05,01,13,42,12.30
2013,05,01,13,43,12.30
2013,05,01,13,44,12.20
2013,05,01,13,45,12.20
2013,05,01,13,46,12.10
2013,05,01,13,47,12.10
2013,05,01,13,48,12.10
2013,05,01,13,49,12.10
2013,05,01,13,50,12.10
2013,05,01,13,51,12.20
2013,05,01,13,52,12.10
2013,05,01,13,53,12.00
2013,05,01,13,54,12.00
2013,05,01,13,55,11.90
2013,05,01,13,56,12.00
2013,05,01,13,57,12.10
2013,05,01,13,58,12.20
2013,05,01,13,59,12.30
2013,05,01,14,00,12.40
2013,05,01,14,01,12.40
2013,05,01,14,02,12.50
2013,05,01,14,03,12.60
2013,05,01,14,04,12.60
2013,05,01,14,05,12.50
2013,05,01,14,06,12.40
2013,05,01,14,07,12.30
2013,05,01,14,08,12.20
2013,05,01,14,09,12.10
2013,05,01,14,10,12.10
2013,05,01,14,11,12.00
2013,05,01,14,12,12.00
2013,05,01,14,13,12.00
2013,05,01,14,14,12.10
2013,05,01,14,15,12.10
2013,05,01,14,16,12.00
2013,05,01,14,17,12.00
2013,05,01,14,18,12.00
2013,05,01,14,19,12.10
2013,05,01,14,20,12.20
2013,05,01,14,21,12.30
2013,05,01,14,22,12.30
2013,05,01,14,23,12.40
2013,05,01,14,24,12.40
2013,05,01,14,25,12.50
2013,05,01,14,26,12.50
2013,05,01,14,27,12.60
2013,05,01,14,28,12.50
2013,05,01,14,29,12.50
2013,05,01,14,30,12.40
2013,05,01,14,31,12.30
2013,05,01,14,32,12.20
2013,05,01,14,33,12.10
2013,05,01,14,34,12.10
2013,05,01,14,35,12.10
2013,05,01,14,36,12.20
2013,05,01,14,37,12.20
2013,05,01,14,38,12.20
2013,05,01,14,39,12.20
2013,05,01,14,40,12.30
2013,05,01,14,41,12.30
2013,05,01,14,42,12.40
2013,05,01,14,43,12.50
2013,05,01,14,44,12.60
2013,05,01,14,45,12.70
2013,05,01,14,46,12.80
2013,05,01,14,47,12.80
2013,05,01,14,48,12.80
2013,05,01,14,49,12.80
2013,05,01,14,50,12.70
2013,05,01,14,51,12.70
2013,05,01,14,52,12.70
2013,05,01,14,53,12.70
2013,05,01,14,54,12.80
2013,05,01,14,55,12.80
2013,05,01,14,56,12.90
2013,05,01,14,57,12.90
2013,05,01,14,58,12.90
2013,05,01,14,59,12.90
2013,05,01,15,00,12.90
2013,05,01,15,01,12.90
2013,05,01,15,02,12.90
2013,05,01,15,03,12.80
2013,05,01,15,04,12.70
2013,05,01,15,05,12.60
2013,05,01,15,06,12.60
2013,05,01,15,07,12.60
2013,05,01,15,08,12.60
2013,05,01,15,09,12.60
2013,05,01,15,10,12.60
2013,05,01,15,11,12.70
2013,05,01,15,12,12.70
2013,05,01,15,13,12.70
2013,05,01,15,14,12.70
2013,05,01,15,15,12.70
2013,05,01,15,16,12.70
2013,05,01,15,17,12.60
2013,05,01,15,18,12.60
2013,05,01,15,19,12.70
2013,05,01,15,20,12.70
2013,05,01,15,21,12.80
2013,05,01,15,22,12.90
2013,05,01,15,23,13.00
2013,05,01,15,24,13.00
2013,05,01,15,25,13.10
2013,05,01,15,26,13.10
2013,05,01,15,27,13.10
2013,05,01,15,28,13.10
2013,05,01,15,29,13.10
2013,05,01,15,30,13.20
2013,05,01,15,31,13.30
2013,05,01,15,32,13.40
2013,05,01,15,33,13.50
2013,05,01,15,34,13.50
2013,05,01,15,35,13.50
2013,05,01,15,36,13.60
2013,05,01,15,37,13.60
2013,05,01,15,38,13.60
2013,05,01,15,39,13.60
2013,05,01,15,40,13.60
2013,05,01,15,41,13.60
2013,05,01,15,42,13.60
2013,05,01,15,43,13.60
2013,05,01,15,44,13.70
2013,05,01,15,45,13.60
2013,05,01,15,46,13.60
2013,05,01,15,47,13.50
2013,05,01,15,48,13.50
2013,05,01,15,49,13.50
2013,05,01,15,50,13.50
2013,05,01,15,51,13.60
2013,05,01,15,52,13.60
2013,05,01,15,53,13.70
2013,05,01,15,54,13.70
2013,05,01,15,55,13.70
2013,05,01,15,56,13.80
2013,05,01,15,57,13.80
2013,05,01,15,58,13.80
2013,05,01,15,59,13.80
2013,05,01,16,00,13.90
2013,05,01,16,01,14.00
2013,05,01,16,02,14.00
2013,05,01,16,03,14.10
2013,05,01,16,04,14.10
2013,05,01,16,05,14.20
2013,05,01,16,06,14.20
2013,05,01,16,07,14.20
2013,05,01,16,08,14.10
2013,05,01,16,09,14.10
2013,05,01,16,10,14.00
2013,05,01,16,11,13.90
2013,05,01,16,12,13.90
2013,05,01,16,13,13.90
2013,05,01,16,14,13.80
2013,05,01,16,15,13.80
2013,05,01,16,16,13.80
2013,05,01,16,17,13.70
2013,05,01,16,18,13.70
2013,05,01,16,19,13.70
2013,05,01,16,20,13.70
2013,05,01,16,21,13.70
2013,05,01,16,22,13.70
2013,05,01,16,23,13.60
2013,05,01,16,24,13.60
2013,05,01,16,25,13.60
2013,05,01,16,26,13.60
2013,05,01,16,27,13.60
2013,05,01,16,28,13.70
2013,05,01,16,29,13.70
2013,05,01,16,30,13.70
2013,05,01,16,31,13.70
2013,05,01,16,32,13.80
2013,05,01,16,33,13.90
2013,05,01,16,34,13.90
2013,05,01,16,35,14.00
2013,05,01,16,36,14.10
2013,05,01,16,37,14.10
2013,05,01,16,38,14.10
2013,05,01,16,39,14.10
2013,05,01,16,40,14.20
2013,05,01,16,41,14.20
2013,05,01,16,42,14.20
2013,05,01,16,43,14.20
2013,05,01,16,44,14.20
2013,05,01,16,45,14.30
2013,05,01,16,46,14.30
2013,05,01,16,47,14.30
2013,05,01,16,48,14.40
2013,05,01,16,49,14.40
2013,05,01,16,50,14.40
2013,05,01,16,51,14.50
2013,05,01,16,52,14.50
2013,05,01,16,53,14.50
2013,05,01,16,54,14.40
2013,05,01,16,55,14.30
2013,05,01,16,56,14.20
2013,05,01,16,57,14.20
2013,05,01,16,58,14.10
2013,05,01,16,59,14.10
2013,05,01,17,00,14.00
2013,05,01,17,01,14.00
2013,05,01,17,02,14.10
2013,05,01,17,03,14.10
2013,05,01,17,04,14.10
2013,05,01,17,05,14.10
2013,05,01,17,06,14.00
2013,05,01,17,07,14.00
2013,05,01,17,08,13.90
2013,05,01,17,09,13.90
2013,05,01,17,10,13.90
2013,05,01,17,11,14.00
2013,05,01,17,12,14.00
2013,05,01,17,13,14.10
2013,05,01,17,14,14.20
2013,05,01,17,15,14.30
2013,05,01,17,16,14.30
2013,05,01,17,17,14.40
2013,05,01,17,18,14.40
2013,05,01,17,19,14.40
2013,05,01,17,20,14.40
2013,05,01,17,21,14.40
2013,05,01,17,22,14.40
2013,05,01,17,23,14.50
2013,05,01,17,24,14.50
2013,05,01,17,25,14.60
2013,05,01,17,26,14.60
2013,05,01,17,27,14.60
2013,05,01,17,28,14.60
2013,05,01,17,29,14.50
2013,05,01,17,30,14.50
2013,05,01,17,31,14.40
2013,05,01,17,32,14.40
2013,05,01,17,33,14.40
2013,05,01,17,34,14.40
2013,05,01,17,35,14.40
2013,05,01,17,36,14.40
2013,05,01,17,37,14.40
2013,05,01,17,38,14.30
2013,05,01,17,39,14.30
2013,05,01,17,40,14.30
2013,05,01,17,41,14.30
2013,05,01,17,42,14.30
2013,05,01,17,43,14.30
2013,05,01,17,44,14.30
2013,05,01,17,45,14.30
2013,05,01,17,46,14.30
2013,05,01,17,47,14.40
2013,05,01,17,48,14.40
2013,05,01,17,49,14.30
2013,05,01,17,50,14.30